www.pogodaiklimat.ru

Погода и климат >> Архив погоды >> Южная Африка >> Мыс St. Francis


ПОГОДА на Мысе St. Francis

  • Прогноз погоды на Мысе St. Francis
  • Монитор погоды на Мысе St. Francis

АРХИВ ПОГОДЫ на Мысе St. Francis

Время (UTC), дата Ветер
(напр.,м/с)
 
Видим.   Явления Облачность Т
(С)
Тd
(С)
f
(%)
Тe
(С)
Тes
(С)
Комфортность P
(гПа)
Po
(гПа)
Тmin
(С)
Tmax
(С)
R
(мм)
R24
(мм)
S
(см)
00 16.07 С 4 н/о н/о +13.1 1023.1 1022.1 +11.9 +20.1
03 16.07 СВ 4 н/о н/о +13.8 1021.0 1020.0 +11.9 +20.1
06 16.07 СВ 11 н/о н/о +17.3 1019.3 1018.3 +11.9
09 16.07 СВ 8 н/о н/о +19.0 1018.4 1017.4 +11.9 +19.1
12 16.07 СВ 4 н/о н/о +21.7 1015.4 1014.4 +11.9 +22.0
15 16.07 З 6 н/о н/о +19.5 1016.2 1015.2 +19.4 +22.8
18 16.07 З 4 н/о н/о +17.9 1017.5 1016.5 +15.6 +22.8
21 16.07 З 3 н/о н/о +16.0 1018.1 1017.1 +12.8 +22.8
00 17.07 СЗ 3 н/о н/о +14.1 1017.2 1016.2 +12.8 +22.8
03 17.07 З 2 н/о н/о +13.9 1016.6 1015.6 +10.6 +22.8
06 17.07 СЗ 4 н/о н/о +13.0 1016.3 1015.3 +10.6
09 17.07 З 4 н/о н/о +19.9 1017.7 1016.7 +10.6 +20.2
12 17.07 З 8 н/о н/о +19.0 1016.0 1015.0 +10.6 +20.2
15 17.07 З 6 н/о н/о +18.9 1016.8 1015.8 +18.9 +20.2
18 17.07 СЗ 2 н/о н/о +14.3 1018.1 1017.1 +14.0 +20.2
21 17.07 С 4 н/о н/о +14.2 1017.8 1016.8 +14.0 +20.2
00 18.07 С 5 н/о н/о +14.3 1016.9 1015.9 +13.6 +20.2
03 18.07 СЗ 4 н/о н/о +13.4 1016.3 1015.3 +13.4 +20.2
06 18.07 СЗ 3 н/о н/о +13.3 1016.9 1015.9 +10.9
09 18.07 ЮВ 1 н/о н/о +21.1 1016.3 1015.3 +10.9 +22.9
12 18.07 З 1 н/о н/о +23.4 1013.5 1012.5 +10.9 +23.8
15 18.07 ЮЗ 5 н/о н/о +20.1 1012.9 1011.9 +20.1 +23.8
18 18.07 СЗ 2 н/о н/о +16.8 1013.0 1012.0 +16.8 +23.8
21 18.07 СЗ 3 н/о н/о +15.8 1012.6 1011.6 +15.6 +23.8
00 19.07 З 5 н/о н/о +18.5 1011.7 1010.7 +15.3 +23.8
03 19.07 З 10 н/о н/о +17.9 1011.2 1010.2 +15.3 +23.8
06 19.07 З 17 н/о н/о +15.4 1012.9 1011.9 +15.1 2
12 19.07 З 15 н/о н/о +15.7 1014.8 1013.8 +14.1 +16.9 8
15 19.07 З 13 н/о н/о +15.0 1016.7 1015.7 +13.9 +16.9
18 19.07 З 16 н/о н/о +14.5 1018.2 1017.2 +13.8 +16.9 10
21 19.07 З 15 н/о н/о +14.4 1019.7 1018.7 +13.5 +16.9
00 20.07 З 15 н/о н/о +13.3 1020.9 1019.9 +11.6 +16.9 13
03 20.07 ЮЗ 13 н/о н/о +12.2 1023.4 1022.3 +11.4 +16.9
06 20.07 ЮЗ 13 н/о н/о +13.4 1025.2 1024.2 +11.4 15
09 20.07 ЮЗ 11 н/о н/о +14.3 1028.4 1027.4 +11.4 +14.5
12 20.07 ЮЗ 11 н/о н/о +14.1 1029.2 1028.1 +11.4 +14.9
15 20.07 ЮЗ 6 н/о н/о +13.3 1030.5 1029.4 +12.9 +14.9
18 20.07 З 3 н/о н/о +12.1 1032.0 1030.9 +11.4 +14.9 0.6
21 20.07 СЗ 4 н/о н/о +9.3 1032.7 1031.6 +9.3 +14.9
00 21.07 СЗ 5 н/о н/о +8.4 1032.0 1030.9 +8.2 +14.9 0.8
03 21.07 С 4 н/о н/о +7.5 1030.5 1029.4 +7.4 +14.9
06 21.07 С 4 н/о н/о +7.6 1029.8 1028.7 +6.4 0.8
09 21.07 СВ 6 н/о н/о +14.4 1027.5 1026.5 +6.4 +14.4
12 21.07 СВ 7 н/о н/о +16.7 1021.8 1020.8 +6.4 +16.8
15 21.07 СВ 9 н/о н/о +17.4 1017.8 1016.8 +16.7 +18.1
18 21.07 СВ 5 н/о н/о +14.9 1015.7 1014.7 +14.9 +18.1
21 21.07 СЗ 2 н/о н/о +10.9 1014.2 1013.2 +8.8 +18.1
00 22.07 СЗ 6 н/о н/о +17.5 1012.8 1011.8 +8.8 +18.1
03 22.07 С 6 н/о н/о +16.4 1011.1 1010.1 +8.8 +18.1
06 22.07 С 7 н/о н/о +16.8 1010.3 1009.3 +8.8
09 22.07 С 8 н/о н/о +25.2 1009.1 1008.1 +8.8 +25.2
12 22.07 З 4 н/о н/о +22.3 1007.5 1006.5 +8.8 +27.5
15 22.07 ЮЗ 8 н/о н/о +18.1 1007.5 1006.5 +18.1 +27.5
18 22.07 З 3 н/о н/о +17.0 1008.6 1007.6 +16.8 +27.5
21 22.07 С 2 н/о н/о +12.7 1008.4 1007.4 +12.5 +27.5

 

Местоположение метеостанции Мыс St. Francis (Южная Африка): широта -34.21 долгота 24.86 высота над уровнем моря 7 м.

В архиве по умолчанию представлена погода на Мысе St. Francis за последнюю неделю. Архивные данные за месяц целиком и за предыдущие месяцы, начиная с января 2011 года, Вы можете получить, выбрав интересующий диапазон дат из раскрывающегося списка и нажав кнопку "Ввод!".


*Определитесь, кто Вы:
робот инопланетянин человек

Внимание! Время в таблицах - всемирное. Для получения местного времени необходимо прибавить поправку, которая равна 2 ч.

Смотрите также архив погоды в соседних городах и на ближайших метеорологических станциях:

Погода в Патенсие (Южная Африка) (50 км)
Погода в Порт-Элизабет (Южная Африка) (75 км)
Погода в Эйтенхахе (Южная Африка) (77 км)
Погода в Нгкура (Южная Африка) (87 км)
Погода в Парке Tsitsikamma (Южная Африка) (90 км)
Погода в Джоубертине (Южная Африка) (101 км)
Погода в Парке Addo Elephant (Южная Африка) (119 км)
Погода на Острове Бёрд (Южная Африка) (138 км)
Погода в Сомерсет-Ист (Южная Африка) (139 км)
Погода в Плеттенберг-Бей (Южная Африка) (141 км)

Пояснения к столбцам:

Ветер - указаны скорость ветра в м/с - средняя за 10 мин, порывы в срок и между сроками (в фигурных скобках) и направление, откуда дует ветер: С - северный, СВ - северо-восточный, В - восточный, ЮВ - юго-восточный, Ю - южный, ЮЗ - юго-западный, З - западный, СЗ - северо-западный.
Видимость - горизонтальная дальность видимости в метрах или километрах. При видимости от 1 до 10 км при отсутствии осадков обычно наблюдается дымка, при ухудшении видимости до 1 км и менее - туман. В сухую погоду видимость может ухудшаться дымом, пылью или мглою.
Явления - указаны атмосферные явления, наблюдавшиеся в срок или в последний час перед сроком; фигурными скобками обозначены явления, наблюдавшиеся между сроками (за 1-3 часа до срока); квадратными скобками обозначены град или гололедные отложения с указанием их диаметра в мм.
Облачность - указаны через наклонную черту общая и нижняя облачность в баллах и высота нижней границы облаков в метрах; квадратными скобками обозначены формы облаков: Ci - перистые, Cs - перисто-слоистые, Cc - перисто-кучевые, Ac - высококучевые, As - высокослоистые, Sc - слоисто-кучевые, Ns - слоисто-дождевые, Cu - кучевые, Cb - кучево-дождевые. Подробнее классификацию облаков см. в Атласе облаков (PDF).
T - Температура воздуха - температура, измеренная на высоте 2 м над землей.
Td - Температура точки росы - температура, при понижении до которой содержащийся в воздухе водяной пар достигнет насыщения.
f - Относительная влажность воздуха - влажноcть воздуха, измеренная на высоте 2 м над землей.
Te - Эффективная температура - температура, которую ощущает одетый по сезону человек в тени. Характеристика душности погоды. При расчете учитывается влияние влажности воздуха и скорости ветра на теплоощущения человека.
Tes - Эффективная температура на солнце - температура, которую ощущает человек, с поправкой на солнечный нагрев. Характеристика знойности погоды. Зависит от высоты солнца над горизонтом, облачности и скорости ветра. Ночью, в пасмурную погоду, а также при ветре 12 м/с и более поправка равна нулю.
P - Атмосферное давление - приведенное к уровню моря атмосферное давление.
Po - Атмосферное давление - измеренное на уровне метеостанции атмосферное давление.
Tmin - Минимальная температура - минимум температуры воздуха на высоте 2 м над землей.
Tmax - Максимальная температура - максимум температуры воздуха на высоте 2 м над землей.
R - Количество осадков - Количество выпавших осадков за период времени, мм. При наведении курсора мыши на число - период времени, за который выпало указанное количество осадков.
R24 - Количество осадков - Количество выпавших осадков за 24 часа, мм.
S - Снежный покров - Высота снежного покрова, см. При наведении курсора мыши на число - состояние снежного покрова и степень покрытия местности в баллах.